Regional Weather Roundup
Issued by NWS Cleveland, OH

Home | Current Version | Previous Version | Text Only | Print | Product List | Glossary Off
Versions: 1 2 3 4 5 6 7 8 9 10 11 12 13 14 15 16 17 18 19 20 21 22 23 24 25 26 27 28 29 30 31 32 33 34 35 36 37 38 39 40 41 42 43 44 45 46 47 48 49 50

000
ASUS41 KCLE 010400
RWRCLE
OHIO REGIONAL WEATHER ROUNDUP
NATIONAL WEATHER SERVICE WILMINGTON, OH
1100 PM EST SAT JAN 31 2015

NOTE: "FAIR" INDICATES FEW OR NO CLOUDS BELOW 12,000 FEET WITH NO
SIGNIFICANT WEATHER AND/OR OBSTRUCTIONS TO VISIBILITY.

OHZ001>008-015>018-024>027-034-035-043-044-010500-
   NORTHWEST OHIO

CITY           SKY/WX    TMP DP  RH WIND       PRES   REMARKS
DEFIANCE       LGT SNOW  34  28  79 CALM      30.18F
FINDLAY        CLOUDY    34  26  72 SW6       30.17F WCI  29
TOLEDO EXPRESS CLOUDY    29  26  89 CALM      30.17F
TOLEDO EXEC    CLOUDY    31  25  78 SW6       30.19S WCI  25
LIMA           CLOUDY    35  25  66 SW7       30.17F WCI  29
$$

OHZ009>014-019>023-028>033-038-089-010500-
   NORTHEAST OHIO

CITY           SKY/WX    TMP DP  RH WIND       PRES   REMARKS
CLE-HOPKINS    CLOUDY    30  20  66 SW7       30.21F WCI  23
CLE-LAKEFRONT  CLOUDY    33  21  61 SW10      30.19S WCI  25
CUY CO. ARPT   CLOUDY    34  23  64 SW9       30.19S WCI  26
LORAIN-ELYRIA  CLOUDY    30  22  72 SW10      30.19F WCI  21
ASHTABULA      CLOUDY    27  17  66 S7        30.19F WCI  19
AKRON-CANTON   CLOUDY    28  20  71 SW9       30.19F WCI  19
WOOSTER        NOT AVBL
MANSFIELD      CLOUDY    32  21  64 SW8       30.18S WCI  25
YOUNGSTOWN     CLOUDY    28  19  69 SW7       30.18F WCI  21
$$

OHZ042-051>053-060>062-070>072-077>081-010500-
  SOUTHWEST OHIO

CITY           SKY/WX    TMP DP  RH WIND       PRES   REMARKS
CINC-COVINGTON LGT RAIN  34  26  72 CALM      30.22F
CINC-LUNKEN    MIX PCPN  32  29  88 CALM      30.26F
HAMILTON       MIX PCPN  36  27  69 CALM      30.25F
DAYTON         NOT AVBL
WRIGHT-PAT AFB NOT AVBL
DAYTON GENERAL CLOUDY    35  26  69 SW10      30.21F WCI  27
WILMINGTON     CLOUDY    33  24  69 SW10      30.22S WCI  25
$$

OHZ036-037-039>041-045>050-054>059-063>069-073>076-082>088-010500-
  CENTRAL AND SOUTHEAST OHIO

CITY           SKY/WX    TMP DP  RH WIND       PRES   REMARKS
COLUMBUS       CLOUDY    33  21  61 S6        30.22F WCI  28
OSU AIRPORT    CLOUDY    33  23  66 S6        30.20F WCI  28
BOLTON FIELD   NOT AVBL
RICKENBACK AFB NOT AVBL
NEWARK         CLOUDY    32  22  66 S5        30.22S WCI  27
MARION         CLOUDY    32  23  69 S9        30.19F WCI  24
LANCASTER      CLOUDY    34  23  64 S5        30.23F WCI  30
ZANESVILLE     CLOUDY    29  19  66 S5        30.23F WCI  24
NEW PHILLY     CLOUDY    27  17  66 SE5       30.23F WCI  22
$$



USA.gov is the U.S. government's official web portal to all federal, state and local government web resources and services.